TimeCST,TemperatureF,Dew PointF,Humidity,Sea Level PressureIn,VisibilityMPH,Wind Direction,Wind SpeedMPH,Gust SpeedMPH,PrecipitationIn,Events,Conditions,WindDirDegrees,DateUTC
12:15 AM,14.7,12.2,90,30.41,10.0,Calm,Calm,-,N/A,,Overcast,0,2013-01-15 06:15:00
12:35 AM,12.7,10.0,89,30.41,10.0,Calm,Calm,-,N/A,,Overcast,0,2013-01-15 06:35:00
12:55 AM,14.0,11.8,91,30.41,10.0,Calm,Calm,-,N/A,,Overcast,0,2013-01-15 06:55:00
1:15 AM,13.1,10.9,91,30.40,10.0,Calm,Calm,-,N/A,,Overcast,0,2013-01-15 07:15:00
1:35 AM,14.0,12.0,92,30.40,10.0,Calm,Calm,-,N/A,,Overcast,0,2013-01-15 07:35:00
1:55 AM,12.7,10.2,90,30.40,10.0,Calm,Calm,-,N/A,,Overcast,0,2013-01-15 07:55:00
2:15 AM,13.8,11.3,90,30.40,7.0,Calm,Calm,-,N/A,,Overcast,0,2013-01-15 08:15:00
2:35 AM,12.2,9.9,90,30.40,10.0,Calm,Calm,-,N/A,,Overcast,0,2013-01-15 08:35:00
3:15 AM,13.3,11.1,91,30.40,7.0,Calm,Calm,-,N/A,,Overcast,0,2013-01-15 09:15:00
3:35 AM,12.4,9.9,90,30.40,7.0,Calm,Calm,-,N/A,,Overcast,0,2013-01-15 09:35:00
3:55 AM,12.0,9.9,91,30.39,7.0,Calm,Calm,-,N/A,,Overcast,0,2013-01-15 09:55:00
4:15 AM,12.6,10.2,90,30.39,10.0,Calm,Calm,-,N/A,,Overcast,0,2013-01-15 10:15:00
4:35 AM,12.2,9.5,89,30.38,10.0,Calm,Calm,-,N/A,,Overcast,0,2013-01-15 10:35:00
4:55 AM,12.9,10.4,90,30.39,7.0,Calm,Calm,-,N/A,,Overcast,0,2013-01-15 10:55:00
5:15 AM,12.2,9.7,90,30.38,7.0,Calm,Calm,-,N/A,,Overcast,0,2013-01-15 11:15:00
5:35 AM,12.0,9.5,90,30.37,7.0,Calm,Calm,-,N/A,,Overcast,0,2013-01-15 11:35:00
5:55 AM,11.1,8.2,88,30.37,7.0,Calm,Calm,-,N/A,,Overcast,0,2013-01-15 11:55:00
6:15 AM,11.1,8.4,89,30.38,10.0,Calm,Calm,-,N/A,,Overcast,0,2013-01-15 12:15:00
6:35 AM,12.9,10.4,90,30.39,7.0,Calm,Calm,-,N/A,,Overcast,0,2013-01-15 12:35:00
6:55 AM,13.3,10.9,90,30.40,7.0,SSE,3.5,-,N/A,,Overcast,160,2013-01-15 12:55:00
7:15 AM,13.1,10.8,90,30.39,7.0,Calm,Calm,-,N/A,,Overcast,0,2013-01-15 13:15:00
7:35 AM,13.1,10.9,91,30.40,7.0,Calm,Calm,-,N/A,,Mostly Cloudy,0,2013-01-15 13:35:00
7:55 AM,14.2,12.0,91,30.40,7.0,Calm,Calm,-,N/A,,Scattered Clouds,0,2013-01-15 13:55:00
8:15 AM,15.4,13.1,90,30.40,7.0,Calm,Calm,-,N/A,,Clear,0,2013-01-15 14:15:00
8:35 AM,16.3,14.0,90,30.39,7.0,Calm,Calm,-,N/A,,Clear,0,2013-01-15 14:35:00
8:55 AM,17.8,15.4,91,30.40,7.0,Calm,Calm,-,N/A,,Clear,0,2013-01-15 14:55:00
9:15 AM,19.4,16.7,89,30.41,7.0,Calm,Calm,-,N/A,,Clear,0,2013-01-15 15:15:00
9:35 AM,20.8,17.6,87,30.41,7.0,Calm,Calm,-,N/A,,Clear,0,2013-01-15 15:35:00
9:55 AM,22.8,19.4,87,30.41,7.0,South,3.5,-,N/A,,Clear,190,2013-01-15 15:55:00
10:15 AM,23.0,18.9,84,30.41,7.0,Calm,Calm,-,N/A,,Clear,0,2013-01-15 16:15:00
10:35 AM,25.0,19.6,80,30.40,10.0,SE,3.5,-,N/A,,Clear,140,2013-01-15 16:35:00
10:55 AM,25.7,20.1,79,30.37,10.0,Calm,Calm,-,N/A,,Clear,0,2013-01-15 16:55:00
11:15 AM,27.3,19.4,72,30.36,10.0,Calm,Calm,-,N/A,,Clear,0,2013-01-15 17:15:00
11:35 AM,27.9,18.7,68,30.34,10.0,SE,3.5,-,N/A,,Clear,140,2013-01-15 17:35:00
11:55 AM,28.4,18.9,67,30.35,10.0,SSE,4.6,-,N/A,,Clear,160,2013-01-15 17:55:00
12:15 PM,28.4,18.9,67,30.34,10.0,ESE,3.5,-,N/A,,Clear,120,2013-01-15 18:15:00
12:35 PM,28.0,17.2,64,30.32,10.0,East,3.5,-,N/A,,Clear,90,2013-01-15 18:35:00
12:55 PM,27.5,16.9,64,30.30,10.0,Calm,Calm,-,N/A,,Clear,0,2013-01-15 18:55:00
1:35 PM,28.2,17.6,64,30.29,10.0,ENE,3.5,-,N/A,,Clear,70,2013-01-15 19:35:00
1:55 PM,28.0,17.2,64,30.29,10.0,East,3.5,-,N/A,,Clear,90,2013-01-15 19:55:00
2:15 PM,28.4,16.5,61,30.29,10.0,East,4.6,-,N/A,,Clear,80,2013-01-15 20:15:00
2:35 PM,29.1,17.1,61,30.29,10.0,East,3.5,-,N/A,,Clear,90,2013-01-15 20:35:00
2:55 PM,28.8,17.4,63,30.28,10.0,ESE,3.5,-,N/A,,Clear,110,2013-01-15 20:55:00
3:15 PM,28.4,17.8,64,30.28,10.0,Calm,Calm,-,N/A,,Clear,0,2013-01-15 21:15:00
3:35 PM,28.0,16.9,63,30.28,10.0,Calm,Calm,-,N/A,,Clear,0,2013-01-15 21:35:00
3:55 PM,28.4,18.0,65,30.30,10.0,SSE,3.5,-,N/A,,Clear,150,2013-01-15 21:55:00
4:15 PM,28.2,18.3,66,30.29,10.0,South,4.6,-,N/A,,Clear,170,2013-01-15 22:15:00
4:35 PM,27.5,18.9,70,30.28,10.0,SSE,3.5,-,N/A,,Clear,160,2013-01-15 22:35:00
4:55 PM,27.5,17.6,66,30.28,10.0,SSE,4.6,-,N/A,,Clear,150,2013-01-15 22:55:00
5:15 PM,27.1,18.5,70,30.28,10.0,Calm,Calm,-,N/A,,Clear,0,2013-01-15 23:15:00
5:35 PM,26.6,18.9,73,30.27,10.0,Calm,Calm,-,N/A,,Clear,0,2013-01-15 23:35:00
5:55 PM,26.6,18.3,71,30.26,10.0,Calm,Calm,-,N/A,,Clear,0,2013-01-15 23:55:00
6:15 PM,25.7,18.3,74,30.25,10.0,Calm,Calm,-,N/A,,Clear,0,2013-01-16 00:15:00
6:35 PM,24.4,19.4,81,30.24,10.0,Calm,Calm,-,N/A,,Clear,0,2013-01-16 00:35:00
6:55 PM,22.5,18.9,86,30.23,10.0,NNE,3.5,-,N/A,,Clear,20,2013-01-16 00:55:00
7:15 PM,23.2,18.9,84,30.21,10.0,NNE,3.5,-,N/A,,Clear,30,2013-01-16 01:15:00
7:35 PM,21.9,18.1,85,30.21,10.0,North,3.5,-,N/A,,Clear,10,2013-01-16 01:35:00
7:55 PM,20.8,17.8,88,30.20,10.0,Calm,Calm,-,N/A,,Clear,0,2013-01-16 01:55:00
8:15 PM,20.1,17.6,90,30.19,10.0,Calm,Calm,-,N/A,,Clear,0,2013-01-16 02:15:00
8:35 PM,20.5,18.0,90,30.19,10.0,Calm,Calm,-,N/A,,Clear,0,2013-01-16 02:35:00
8:55 PM,19.4,16.9,90,30.19,7.0,Calm,Calm,-,N/A,,Scattered Clouds,0,2013-01-16 02:55:00
9:15 PM,19.2,17.1,91,30.17,7.0,Calm,Calm,-,N/A,,Scattered Clouds,0,2013-01-16 03:15:00
9:35 PM,20.3,18.5,93,30.16,7.0,Calm,Calm,-,N/A,,Scattered Clouds,0,2013-01-16 03:35:00
9:55 PM,19.9,18.1,93,30.16,7.0,Calm,Calm,-,N/A,,Clear,0,2013-01-16 03:55:00
10:15 PM,18.7,16.9,93,30.16,7.0,NNW,3.5,-,N/A,,Clear,340,2013-01-16 04:15:00
10:35 PM,17.4,15.4,92,30.14,7.0,Calm,Calm,-,N/A,,Mostly Cloudy,0,2013-01-16 04:35:00
10:55 PM,18.3,16.5,93,30.14,7.0,North,3.5,-,N/A,,Overcast,350,2013-01-16 04:55:00
11:15 PM,17.6,15.8,93,30.13,7.0,Calm,Calm,-,N/A,,Mostly Cloudy,0,2013-01-16 05:15:00
11:35 PM,18.0,16.2,93,30.11,7.0,Calm,Calm,-,N/A,,Mostly Cloudy,0,2013-01-16 05:35:00